TimeCDT,TemperatureF,Dew PointF,Humidity,Sea Level PressureIn,VisibilityMPH,Wind Direction,Wind SpeedMPH,Gust SpeedMPH,PrecipitationIn,Events,Conditions,WindDirDegrees,DateUTC
12:53 AM,66.0,60.1,81,29.75,10.0,West,5.8,-,N/A,,Overcast,260,2012-10-02 05:53:00
1:53 AM,64.9,61.0,87,29.75,10.0,West,5.8,-,N/A,,Overcast,280,2012-10-02 06:53:00
2:19 AM,64.4,60.8,88,29.75,10.0,WSW,4.6,-,N/A,,Overcast,250,2012-10-02 07:19:00
2:28 AM,64.4,60.8,88,29.75,10.0,West,4.6,-,N/A,,Overcast,270,2012-10-02 07:28:00
2:50 AM,64.4,60.8,88,29.76,10.0,Calm,Calm,-,N/A,,Overcast,0,2012-10-02 07:50:00
2:53 AM,64.9,61.0,87,29.76,10.0,Calm,Calm,-,N/A,,Overcast,0,2012-10-02 07:53:00
3:12 AM,64.4,60.8,88,29.76,10.0,West,5.8,-,N/A,,Overcast,280,2012-10-02 08:12:00
3:19 AM,64.4,60.8,88,29.76,10.0,Variable,4.6,-,N/A,,Overcast,0,2012-10-02 08:19:00
3:53 AM,64.9,61.0,87,29.77,10.0,West,5.8,-,N/A,,Overcast,270,2012-10-02 08:53:00
4:42 AM,64.4,60.8,88,29.78,10.0,West,5.8,-,N/A,,Overcast,280,2012-10-02 09:42:00
4:53 AM,64.9,61.0,87,29.78,10.0,WNW,3.5,-,N/A,,Overcast,290,2012-10-02 09:53:00
5:53 AM,64.9,61.0,87,29.80,10.0,West,4.6,-,N/A,,Overcast,270,2012-10-02 10:53:00
6:53 AM,64.9,61.0,87,29.83,10.0,West,5.8,-,N/A,,Mostly Cloudy,280,2012-10-02 11:53:00
7:04 AM,64.4,60.8,88,29.83,10.0,West,6.9,-,N/A,,Mostly Cloudy,270,2012-10-02 12:04:00
7:11 AM,64.4,60.8,88,29.83,10.0,West,3.5,-,N/A,,Mostly Cloudy,270,2012-10-02 12:11:00
7:53 AM,66.9,61.0,81,29.84,10.0,WNW,4.6,-,N/A,,Mostly Cloudy,290,2012-10-02 12:53:00
8:14 AM,66.2,60.8,83,29.86,10.0,WNW,5.8,-,N/A,,Mostly Cloudy,290,2012-10-02 13:14:00
8:53 AM,66.9,59.0,76,29.88,10.0,Variable,5.8,-,N/A,,Mostly Cloudy,0,2012-10-02 13:53:00
9:53 AM,70.0,57.0,63,29.89,10.0,WSW,4.6,-,N/A,,Scattered Clouds,250,2012-10-02 14:53:00
10:53 AM,73.0,57.0,57,29.91,10.0,WNW,9.2,-,N/A,,Scattered Clouds,300,2012-10-02 15:53:00
11:53 AM,75.9,57.0,52,29.91,10.0,NNW,9.2,-,N/A,,Scattered Clouds,340,2012-10-02 16:53:00
12:53 PM,77.0,55.9,48,29.89,10.0,WNW,8.1,-,N/A,,Scattered Clouds,290,2012-10-02 17:53:00
1:53 PM,77.0,55.9,48,29.90,10.0,Variable,5.8,-,N/A,,Mostly Cloudy,0,2012-10-02 18:53:00
2:53 PM,80.1,55.9,43,29.89,10.0,Variable,6.9,-,N/A,,Mostly Cloudy,0,2012-10-02 19:53:00
3:53 PM,78.1,55.9,46,29.90,10.0,NW,8.1,-,N/A,,Mostly Cloudy,310,2012-10-02 20:53:00
4:53 PM,77.0,55.9,48,29.90,10.0,Variable,3.5,-,N/A,,Scattered Clouds,0,2012-10-02 21:53:00
5:53 PM,75.0,57.0,53,29.90,10.0,West,3.5,-,N/A,,Partly Cloudy,260,2012-10-02 22:53:00
7:53 PM,64.9,60.1,84,29.94,10.0,Calm,Calm,-,N/A,,Clear,0,2012-10-03 00:53:00
8:53 PM,66.0,61.0,84,29.98,10.0,West,4.6,-,N/A,,Clear,260,2012-10-03 01:53:00
9:53 PM,64.9,61.0,87,30.00,10.0,Calm,Calm,-,N/A,,Clear,0,2012-10-03 02:53:00
10:53 PM,70.0,61.0,73,30.02,10.0,ENE,10.4,-,N/A,,Clear,60,2012-10-03 03:53:00
11:53 PM,70.0,60.1,71,30.02,10.0,East,11.5,-,N/A,,Clear,80,2012-10-03 04:53:00